• In Belarus
  • List of Countries
  • For 7 days
  • Water Temperature
  • Satellite Maps
  • Weather Map
  • Weather Widgets
  • user-avatar
    Login

    Hourly Weather Dyakonovo 2-e

    Today, 20 June, Wednesday

    Time Temperature Precipitation Wind Pressure Humidity
    00:00 +17°C° 0 mm 3 mps 742 mmHg 78%
    01:00 +17°C° 0.3 mm 4 mps 742 mmHg 83%
    02:00 +15°C° 0.3 mm 4 mps 742 mmHg 87%
    03:00 +14°C° 0 mm 4 mps 741 mmHg 93%
    04:00 +14°C° 0.1 mm 4 mps 742 mmHg 92%
    05:00 +13°C° 0.1 mm 5 mps 742 mmHg 91%
    06:00 +13°C° 0.1 mm 5 mps 742 mmHg 90%
    07:00 +14°C° 0 mm 5 mps 742 mmHg 79%
    08:00 +15°C° 0 mm 6 mps 742 mmHg 69%
    09:00 +17°C° 0 mm 6 mps 742 mmHg 59%
    10:00 +18°C° 0 mm 7 mps 742 mmHg 55%
    11:00 +20°C° 0 mm 7 mps 742 mmHg 50%
    12:00 +21°C° 0 mm 7 mps 742 mmHg 46%
    13:00 +21°C° 0 mm 6 mps 742 mmHg 48%
    14:00 +20°C° 0 mm 6 mps 742 mmHg 49%
    15:00 +20°C° 0 mm 5 mps 742 mmHg 51%
    16:00 +20°C° 0 mm 5 mps 742 mmHg 53%
    17:00 +20°C° 0 mm 5 mps 742 mmHg 54%
    18:00 +19°C° 0 mm 5 mps 743 mmHg 56%
    19:00 +17°C° 0 mm 5 mps 743 mmHg 60%
    20:00 +17°C° 0 mm 4 mps 743 mmHg 63%
    21:00 +14°C° 0 mm 4 mps 743 mmHg 66%
    22:00 +14°C° 0 mm 4 mps 743 mmHg 67%
    23:00 +13°C° 0 mm 4 mps 743 mmHg 67%

    Tomorrow, 21 June, Thursday

    Time Temperature Precipitation Wind Pressure Humidity
    00:00 +13°C° 0 mm 4 mps 744 mmHg 67%
    01:00 +12°C° 0 mm 4 mps 744 mmHg 70%
    02:00 +12°C° 0 mm 4 mps 744 mmHg 72%
    03:00 +11°C° 0 mm 4 mps 744 mmHg 74%
    04:00 +12°C° 0 mm 4 mps 744 mmHg 74%
    05:00 +12°C° 0 mm 4 mps 744 mmHg 74%
    06:00 +12°C° 0 mm 4 mps 744 mmHg 74%
    07:00 +13°C° 0 mm 4 mps 745 mmHg 69%
    08:00 +14°C° 0 mm 5 mps 745 mmHg 63%
    09:00 +16°C° 0 mm 5 mps 745 mmHg 58%
    10:00 +16°C° 0 mm 5 mps 745 mmHg 57%
    11:00 +17°C° 0 mm 5 mps 745 mmHg 56%
    12:00 +19°C° 0 mm 5 mps 744 mmHg 56%
    13:00 +17°C° 0 mm 5 mps 744 mmHg 62%
    14:00 +18°C° 0 mm 4 mps 744 mmHg 69%
    15:00 +17°C° 0 mm 3 mps 744 mmHg 75%
    16:00 +18°C° 0 mm 3 mps 744 mmHg 74%
    17:00 +19°C° 0 mm 3 mps 744 mmHg 72%
    18:00 +21°C° 0 mm 3 mps 744 mmHg 70%
    19:00 +20°C° 0 mm 3 mps 744 mmHg 76%
    20:00 +18°C° 0 mm 2 mps 744 mmHg 82%
    21:00 +18°C° 0 mm 1 mps 744 mmHg 88%
    22:00 +17°C° 0 mm 2 mps 744 mmHg 90%
    23:00 +16°C° 0 mm 2 mps 744 mmHg 92%

    Day after tomorrow, 22 June, Friday

    Time Temperature Precipitation Wind Pressure Humidity
    00:00 +16°C° 0 mm 2 mps 744 mmHg 94%
    01:00 +15°C° 0 mm 2 mps 744 mmHg 95%
    02:00 +15°C° 0 mm 2 mps 744 mmHg 95%
    03:00 +14°C° 0 mm 3 mps 744 mmHg 96%
    04:00 +16°C° 0 mm 3 mps 744 mmHg 93%
    05:00 +17°C° 0 mm 3 mps 744 mmHg 90%
    06:00 +18°C° 0 mm 3 mps 744 mmHg 87%
    07:00 +19°C° 0 mm 4 mps 743 mmHg 80%
    08:00 +21°C° 0 mm 5 mps 743 mmHg 73%
    09:00 +23°C° 0 mm 5 mps 743 mmHg 66%
    10:00 +24°C° 0 mm 6 mps 742 mmHg 62%
    11:00 +26°C° 0 mm 6 mps 742 mmHg 58%
    12:00 +28°C° 0 mm 7 mps 742 mmHg 54%
    13:00 +28°C° 0.1 mm 6 mps 741 mmHg 56%
    14:00 +28°C° 0.1 mm 6 mps 741 mmHg 58%
    15:00 +28°C° 0.1 mm 6 mps 741 mmHg 60%
    16:00 +27°C° 0.5 mm 5 mps 741 mmHg 68%
    17:00 +26°C° 0.5 mm 5 mps 741 mmHg 76%
    18:00 +25°C° 0.5 mm 4 mps 741 mmHg 83%
    19:00 +22°C° 1.1 mm 4 mps 741 mmHg 87%
    20:00 +21°C° 1.1 mm 4 mps 741 mmHg 91%
    21:00 +20°C° 1.1 mm 3 mps 742 mmHg 95%
    22:00 +19°C° 0.2 mm 3 mps 742 mmHg 95%
    23:00 +18°C° 0.2 mm 2 mps 742 mmHg 95%

    23 June, Saturday

    Time Temperature Precipitation Wind Pressure Humidity
    00:00 +17°C° 0.2 mm 2 mps 742 mmHg 95%
    01:00 +16°C° 0 mm 2 mps 743 mmHg 95%
    02:00 +15°C° 0 mm 2 mps 743 mmHg 95%
    03:00 +15°C° 0 mm 2 mps 743 mmHg 95%
    04:00 +15°C° 0 mm 1 mps 743 mmHg 94%
    05:00 +15°C° 0 mm 1 mps 744 mmHg 94%
    06:00 +15°C° 0 mm 1 mps 744 mmHg 93%
    07:00 +15°C° 0 mm 1 mps 744 mmHg 93%
    08:00 +15°C° 0 mm 1 mps 744 mmHg 93%
    09:00 +15°C° 0 mm 1 mps 745 mmHg 92%
    10:00 +15°C° 0.1 mm 1 mps 745 mmHg 92%
    11:00 +15°C° 0.1 mm 1 mps 745 mmHg 91%
    12:00 +15°C° 0.1 mm 1 mps 745 mmHg 91%
    13:00 +15°C° 0.2 mm 1 mps 745 mmHg 89%
    14:00 +15°C° 0.2 mm 2 mps 745 mmHg 87%
    15:00 +16°C° 0.2 mm 2 mps 744 mmHg 85%
    16:00 +14°C° 0.6 mm 3 mps 744 mmHg 87%
    17:00 +13°C° 0.6 mm 3 mps 744 mmHg 90%
    18:00 +13°C° 0.6 mm 4 mps 744 mmHg 92%
    19:00 +12°C° 1.3 mm 4 mps 744 mmHg 93%
    20:00 +12°C° 1.3 mm 3 mps 743 mmHg 95%
    21:00 +11°C° 1.3 mm 3 mps 743 mmHg 96%
    22:00 +11°C° 0.6 mm 3 mps 743 mmHg 97%
    23:00 +11°C° 0.6 mm 3 mps 743 mmHg 97%

    24 June, Sunday

    Time Temperature Precipitation Wind Pressure Humidity
    00:00 +11°C° 0.6 mm 3 mps 742 mmHg 97%
    01:00 +11°C° 1.3 mm 3 mps 742 mmHg 97%
    02:00 +11°C° 1.3 mm 3 mps 742 mmHg 97%
    03:00 +11°C° 1.3 mm 3 mps 742 mmHg 98%
    04:00 +10°C° 1.1 mm 3 mps 742 mmHg 97%
    05:00 +10°C° 1.1 mm 4 mps 742 mmHg 97%
    06:00 +10°C° 1.1 mm 4 mps 741 mmHg 97%
    07:00 +11°C° 0.2 mm 4 mps 742 mmHg 95%
    08:00 +11°C° 0.2 mm 4 mps 742 mmHg 94%
    09:00 +12°C° 0.2 mm 4 mps 743 mmHg 92%
    10:00 +14°C° 0 mm 4 mps 744 mmHg 83%
    11:00 +17°C° 0 mm 4 mps 744 mmHg 74%
    12:00 +19°C° 0 mm 4 mps 745 mmHg 65%
    13:00 +19°C° 0 mm 4 mps 745 mmHg 61%
    14:00 +20°C° 0 mm 4 mps 746 mmHg 57%
    15:00 +21°C° 0 mm 4 mps 746 mmHg 52%
    16:00 +21°C° 0.1 mm 3 mps 746 mmHg 55%
    17:00 +21°C° 0.1 mm 3 mps 746 mmHg 58%
    18:00 +21°C° 0.1 mm 2 mps 747 mmHg 61%
    19:00 +19°C° 0 mm 2 mps 747 mmHg 68%
    20:00 +17°C° 0 mm 2 mps 747 mmHg 75%
    21:00 +15°C° 0 mm 1 mps 747 mmHg 82%
    22:00 +15°C° 0 mm 1 mps 747 mmHg 85%
    23:00 +14°C° 0 mm 1 mps 748 mmHg 87%

    25 June, Monday

    Time Temperature Precipitation Wind Pressure Humidity
    00:00 +13°C° 0 mm 1 mps 748 mmHg 90%
    01:00 +12°C° 0 mm 2 mps 748 mmHg 91%
    02:00 +12°C° 0 mm 2 mps 748 mmHg 93%
    03:00 +12°C° 0 mm 2 mps 748 mmHg 94%
    04:00 +12°C° 0 mm 2 mps 748 mmHg 92%
    05:00 +13°C° 0 mm 2 mps 749 mmHg 90%
    06:00 +14°C° 0 mm 2 mps 749 mmHg 88%
    07:00 +15°C° 0.1 mm 2 mps 749 mmHg 82%
    08:00 +17°C° 0.1 mm 2 mps 749 mmHg 77%
    09:00 +19°C° 0.1 mm 3 mps 749 mmHg 71%
    10:00 +19°C° 0.4 mm 3 mps 749 mmHg 69%
    11:00 +20°C° 0.4 mm 3 mps 749 mmHg 67%
    12:00 +20°C° 0.4 mm 3 mps 749 mmHg 65%
    13:00 +21°C° 0.5 mm 4 mps 749 mmHg 65%
    14:00 +21°C° 0.5 mm 4 mps 749 mmHg 65%
    15:00 +21°C° 0.5 mm 4 mps 749 mmHg 66%
    16:00 +21°C° 0.2 mm 4 mps 749 mmHg 67%
    17:00 +21°C° 0.2 mm 3 mps 749 mmHg 68%
    18:00 +20°C° 0.2 mm 3 mps 749 mmHg 69%
    19:00 +19°C° 0.2 mm 3 mps 749 mmHg 75%
    20:00 +17°C° 0.2 mm 2 mps 749 mmHg 81%
    21:00 +16°C° 0.2 mm 2 mps 749 mmHg 87%
    22:00 +15°C° 0 mm 2 mps 749 mmHg 89%
    23:00 +14°C° 0 mm 2 mps 749 mmHg 91%
    Show more